Date,TemperatureHighF,TemperatureAvgF,TemperatureLowF,DewpointHighF,DewpointAvgF,DewpointLowF,HumidityHigh,HumidityAvg,HumidityLow,PressureMaxIn,PressureMinIn,WindSpeedMaxMPH,WindSpeedAvgMPH,GustSpeedMaxMPH,PrecipitationSumIn
2013-1-1,82,67,57,62,59,54,96,76,48,30.25,30.07,18,5,25,0.00
2013-1-2,80,71,66,70,67,61,99,89,68,30.10,30.02,12,4,17,0.00
2013-1-3,78,68,62,70,65,60,98,93,73,30.20,29.81,12,4,18,0.27
2013-1-4,64,61,58,62,59,57,97,96,93,30.31,30.19,10,3,14,0.14
2013-1-5,77,64,58,63,59,54,96,85,61,30.32,30.22,9,3,16,0.00
2013-1-6,79,68,63,70,65,61,98,89,66,30.23,30.11,9,3,13,0.02
2013-1-7,69,65,62,65,61,56,96,89,71,30.24,30.13,11,5,20,0.01
2013-1-8,91,72,63,70,66,62,97,83,45,30.25,30.14,9,3,13,0.00
2013-1-9,91,77,70,73,69,66,96,77,46,30.31,30.18,13,4,19,0.00
2013-1-10,89,76,70,71,68,63,96,77,43,30.31,30.19,16,5,23,0.00
2013-1-11,89,75,67,70,65,63,95,74,44,30.28,30.16,17,4,22,0.00
2013-1-12,88,74,67,69,67,65,95,80,50,30.21,30.10,12,4,17,0.00
2013-1-13,82,74,68,69,66,61,92,77,53,30.19,30.08,12,5,16,0.00
2013-1-14,86,73,66,67,63,58,94,75,40,30.21,30.13,13,3,17,0.00
2013-1-15,85,73,64,68,64,61,95,76,49,30.17,30.07,14,4,18,0.01
2013-1-16,88,73,66,69,65,58,96,77,40,30.13,30.03,12,4,17,0.00
2013-1-17,71,64,56,70,60,48,98,87,65,30.19,30.01,16,7,31,0.15
2013-1-18,67,57,46,55,49,40,81,74,59,30.35,30.19,14,6,25,0.00
2013-1-19,79,66,56,61,57,50,85,71,52,30.30,30.16,12,5,19,0.00
2013-1-20,84,68,62,64,60,56,88,77,50,30.21,30.07,10,3,13,0.00
2013-1-21,76,67,62,63,59,54,89,75,60,30.14,30.06,11,3,17,0.00
2013-1-22,71,62,56,54,46,38,76,57,33,30.32,30.11,11,3,16,0.00
2013-1-23,73,59,50,50,43,37,80,57,33,30.40,30.30,11,3,18,0.00
2013-1-24,75,60,50,58,52,46,95,76,46,30.38,30.29,9,2,14,0.00
2013-1-25,75,62,53,60,54,48,96,78,44,30.35,30.23,8,1,12,0.01
2013-1-26,80,64,54,60,57,51,95,78,49,30.32,30.22,8,2,12,0.00
2013-1-27,87,68,56,64,58,53,96,75,35,30.66,30.24,9,2,33,0.44
2013-1-28,87,72,65,66,64,59,96,76,45,30.34,30.22,13,3,18,0.00
2013-1-29,85,73,65,69,66,63,96,80,51,30.26,30.10,15,7,22,0.00
2013-1-30,80,73,68,68,67,64,92,80,62,30.10,29.93,26,13,37,0.00
2013-1-31,71,61,55,68,49,38,92,66,38,30.28,29.99,14,6,30,0.18
2013-2-1,75,59,48,48,43,34,74,58,26,30.40,30.26,11,4,20,0.00
2013-2-2,75,60,50,51,46,34,75,60,26,30.35,30.20,10,4,13,0.00
2013-2-3,75,60,49,59,51,46,90,73,52,30.24,30.14,9,2,15,0.00
2013-2-4,76,59,50,55,48,41,96,72,34,30.19,30.08,10,1,16,0.00
2013-2-5,80,64,52,58,52,47,85,68,39,30.14,30.04,14,3,17,0.00
2013-2-6,80,70,63,65,61,57,87,73,50,30.14,30.05,12,3,15,0.00
2013-2-7,81,71,65,68,65,61,94,83,58,30.08,29.89,21,9,37,0.22
2013-2-8,76,68,62,68,63,59,97,85,64,30.12,29.93,11,5,17,0.00
2013-2-9,80,66,58,61,58,54,94,76,49,30.23,30.10,9,4,15,0.01
2013-2-10,85,71,63,64,61,57,88,72,44,30.26,30.15,18,7,27,0.00
2013-2-11,82,72,65,68,65,43,92,79,59,30.22,29.88,20,9,27,0.10
2013-2-12,82,73,68,71,69,67,98,88,68,30.12,29.98,18,9,27,0.00
2013-2-13,80,72,64,73,69,59,99,91,79,30.03,29.89,17,8,28,0.39
2013-2-14,65,64,61,63,62,60,96,93,88,30.09,29.96,10,2,17,0.47
2013-2-15,71,62,58,61,57,52,96,84,59,30.12,30.00,8,2,13,0.03
2013-2-16,69,60,54,55,49,39,87,69,51,30.18,29.99,19,6,33,0.00
2013-2-17,61,52,44,40,34,25,72,51,35,30.39,30.18,14,6,32,0.03
2013-2-18,77,56,43,53,43,34,91,65,36,30.39,30.23,14,4,19,0.02
2013-2-19,79,66,55,64,58,50,91,77,55,30.25,30.11,18,6,23,0.00
2013-2-20,80,68,62,66,62,56,96,82,57,30.16,30.06,9,3,15,0.00
2013-2-21,84,71,62,67,63,55,95,78,52,30.13,30.01,13,5,17,0.00
2013-2-22,83,73,65,70,67,63,96,83,65,30.09,30.02,18,7,25,0.00
2013-2-23,78,72,69,72,70,69,99,93,82,30.03,29.93,16,8,23,0.00
2013-2-24,78,72,69,73,70,68,100,93,78,29.99,29.90,11,4,16,0.00
2013-2-25,84,75,69,73,71,68,98,87,67,29.93,29.80,16,8,24,0.00
2013-2-26,76,72,68,73,68,62,98,89,72,29.93,28.31,21,8,33,0.31
2013-2-27,75,67,62,62,58,54,85,73,54,30.02,29.91,10,5,17,0.00
2013-2-28,78,66,61,60,55,49,82,68,48,30.05,29.95,12,5,18,0.00
2013-3-1,67,60,57,51,47,40,72,62,50,30.07,29.96,13,6,23,0.00
2013-3-2,63,57,52,46,44,40,80,62,49,30.13,30.02,15,7,26,0.01
2013-3-3,58,52,47,43,39,34,71,63,54,30.20,30.04,15,6,28,0.00
2013-3-4,68,56,46,47,42,36,81,61,38,30.27,30.17,10,4,16,0.00
2013-3-5,76,62,47,63,54,43,91,77,52,30.21,30.07,13,5,20,0.00
2013-3-6,67,62,56,66,50,42,96,66,45,30.18,30.00,16,8,32,0.00
2013-3-7,67,56,48,49,43,33,83,63,39,30.26,30.16,12,4,20,0.00
2013-3-8,75,60,48,52,48,43,92,69,38,30.26,30.16,10,3,16,0.00
2013-3-9,78,64,52,55,52,46,88,67,36,30.24,30.16,10,3,15,0.00
2013-3-10,85,69,60,60,57,53,87,67,36,30.17,30.06,18,5,27,0.00
2013-3-11,79,70,62,64,60,53,90,73,52,30.11,29.90,18,9,25,0.00
2013-3-12,70,66,60,68,61,47,98,84,60,30.08,29.87,19,9,27,0.30
2013-3-13,74,64,59,54,49,44,81,60,42,30.22,30.06,15,7,25,0.00
2013-3-14,69,60,54,54,43,33,77,53,38,30.32,30.19,15,7,23,0.00
2013-3-15,74,60,48,51,45,37,88,61,32,30.33,30.21,10,3,16,0.00
2013-3-16,78,63,51,61,52,43,92,71,34,30.23,30.11,12,3,15,0.00
2013-3-17,78,66,57,63,58,53,96,78,54,30.17,30.03,15,5,22,0.00
2013-3-18,74,69,63,69,64,59,94,85,78,30.06,29.91,20,7,28,0.00
2013-3-19,87,72,64,68,65,58,96,81,48,30.05,29.93,12,3,15,0.00
2013-3-20,73,68,62,67,64,59,95,87,73,30.01,29.84,15,4,28,0.21
2013-3-21,73,63,54,61,48,37,94,62,32,30.04,29.91,11,4,20,0.00
2013-3-22,80,64,52,68,55,46,95,74,42,30.03,29.92,15,4,21,0.32
2013-3-23,81,73,67,74,70,66,98,92,74,30.00,29.83,16,8,22,0.00
2013-3-24,79,73,70,74,71,68,98,94,82,29.86,29.70,17,9,28,0.00
2013-3-25,70,65,60,68,52,36,96,66,40,30.09,29.80,16,8,29,0.00
2013-3-26,62,58,53,48,42,38,68,56,45,30.30,30.08,16,8,31,0.00
2013-3-27,65,55,46,44,39,33,74,57,44,30.38,30.26,14,5,20,0.00
2013-3-28,73,59,48,49,43,35,86,58,29,30.35,30.25,12,4,18,0.00
2013-3-29,80,64,53,54,49,38,86,62,23,30.36,30.24,11,3,16,0.00
2013-3-30,79,66,55,60,54,49,86,69,42,30.29,30.17,15,4,21,0.00
2013-3-31,80,69,60,64,59,54,88,72,46,30.19,30.04,16,6,22,0.00
2013-4-1,80,73,67,70,67,63,94,82,65,30.07,29.99,13,6,19,0.00
2013-4-2,83,72,64,66,64,57,94,78,52,30.14,30.03,9,2,12,0.00
2013-4-3,85,74,66,70,66,61,95,79,49,30.11,29.97,20,7,26,0.06
2013-4-4,76,71,68,71,68,65,97,91,70,30.07,29.89,19,7,27,0.67
2013-4-5,76,69,64,68,63,58,97,83,60,30.03,29.84,14,6,23,0.19
2013-4-6,78,67,58,62,58,53,84,72,54,30.14,30.03,11,5,19,0.00
2013-4-7,86,73,63,64,61,57,93,69,40,30.18,30.07,12,4,16,0.00
2013-4-8,92,76,67,66,62,56,86,65,34,30.16,30.06,12,4,20,0.00
2013-4-9,91,77,67,68,65,59,90,68,38,30.17,30.08,17,5,22,0.00
2013-4-10,94,79,68,68,65,57,89,66,37,30.14,29.98,12,4,18,0.00
2013-4-11,90,79,74,73,71,65,91,76,51,30.00,29.84,20,10,31,0.00
2013-4-12,78,76,73,74,73,69,95,90,87,29.95,29.81,22,10,32,0.01
2013-4-13,88,77,70,70,68,65,94,76,52,30.02,29.91,8,3,13,0.00
2013-4-14,84,76,71,74,69,62,91,79,67,30.04,29.89,17,8,29,0.00
2013-4-15,91,78,70,70,67,62,85,68,46,30.10,29.95,11,4,16,0.00
2013-4-16,99,82,72,73,70,66,92,69,35,30.15,30.05,12,4,19,0.00
2013-4-17,96,82,72,70,67,59,87,63,31,30.16,30.03,13,5,21,0.00
2013-4-18,92,80,72,73,68,65,87,69,44,30.07,29.97,13,6,18,0.00
2013-4-19,88,80,75,74,72,68,90,77,56,30.04,29.95,21,10,36,0.00
2013-4-20,78,72,65,74,64,59,90,78,63,30.17,30.01,14,5,23,0.00
2013-4-21,85,72,64,70,65,59,90,79,57,30.17,30.05,11,5,16,0.06
2013-4-22,88,75,69,71,68,64,96,81,54,30.10,30.00,14,4,23,0.28
2013-4-23,89,76,68,68,65,60,88,71,45,30.13,30.04,11,6,21,0.00
2013-4-24,88,76,66,68,64,57,88,69,37,30.17,30.09,12,5,16,0.00
2013-4-25,87,76,67,70,67,63,93,73,55,30.23,30.13,13,4,17,0.00
2013-4-26,88,77,68,71,67,65,90,72,54,30.26,30.18,10,3,16,0.00
2013-4-27,89,79,72,70,68,63,89,69,43,30.25,30.10,11,4,18,0.00
2013-4-28,93,79,71,69,66,60,82,65,36,30.14,29.99,15,5,23,0.00
2013-4-29,84,78,71,72,68,64,85,72,55,30.05,29.93,15,6,18,0.04
2013-4-30,91,80,71,72,70,64,92,73,44,30.02,29.92,9,4,14,0.06
2013-5-1,76,73,69,74,70,67,95,90,82,30.02,29.94,12,4,15,1.19
2013-5-2,84,75,68,73,69,67,95,84,63,30.00,29.84,10,4,16,0.00
2013-5-3,84,76,70,72,70,66,96,80,60,29.86,29.75,12,4,17,2.65
2013-5-4,80,74,68,70,68,65,92,80,66,29.87,29.72,15,4,23,0.02
2013-5-5,81,72,65,68,58,51,93,63,41,29.98,29.84,14,7,25,0.01
2013-5-6,80,72,67,65,59,55,80,64,46,30.05,29.93,12,5,17,0.00
2013-5-7,78,71,65,64,59,53,80,66,50,30.09,30.00,12,4,20,0.00
2013-5-8,82,73,65,64,62,58,85,68,51,30.17,30.06,10,3,15,0.00
2013-5-9,86,75,65,67,65,62,94,73,51,30.19,30.11,10,3,16,0.00
2013-5-10,91,78,68,71,67,62,95,70,41,30.17,30.03,13,4,17,0.00
2013-5-11,89,79,75,76,72,69,92,79,59,30.09,30.02,13,4,24,0.00
2013-5-12,89,79,72,74,70,68,94,75,52,30.07,29.97,10,3,17,0.00
2013-5-13,87,78,71,70,61,51,86,60,34,30.16,30.02,13,5,23,0.00
2013-5-14,87,75,64,61,51,41,69,45,24,30.24,30.14,13,5,19,0.00
2013-5-15,91,77,66,64,61,52,84,60,31,30.23,30.08,11,3,17,0.00
2013-5-16,88,78,69,69,65,59,85,66,44,30.15,30.02,10,4,15,0.00
2013-5-17,89,79,71,69,67,64,84,68,47,30.12,30.05,11,4,14,0.00
2013-5-18,91,80,73,73,70,65,89,71,47,30.13,30.04,10,4,15,0.00
2013-5-19,92,81,72,73,69,66,91,69,48,30.12,30.01,10,2,15,0.00
2013-5-20,92,82,74,74,70,64,85,69,43,30.10,30.00,11,3,18,0.05
2013-5-21,92,80,73,73,70,61,91,74,48,30.06,29.95,15,3,26,0.00
2013-5-22,91,81,73,73,71,69,88,73,52,30.00,29.92,10,3,18,0.00
2013-5-23,90,82,75,73,72,70,91,74,55,30.05,29.95,10,4,17,0.00
2013-5-24,93,83,76,76,72,66,88,70,45,30.11,30.01,11,4,17,0.00
2013-5-25,100,85,75,72,65,57,81,55,26,30.19,30.08,13,6,19,0.00
2013-5-26,95,81,71,64,60,48,75,51,24,30.24,30.13,11,5,23,0.00
2013-5-27,97,82,71,68,65,59,83,59,30,30.22,30.07,12,5,22,0.00
2013-5-28,96,81,74,77,71,67,87,73,42,30.18,30.03,17,6,32,0.75
2013-5-29,90,80,74,75,71,66,92,75,52,30.12,30.04,16,6,25,0.08
2013-5-30,91,82,76,74,71,68,90,71,48,30.10,30.01,17,7,28,0.00
2013-5-31,93,81,75,74,71,69,84,72,50,30.11,30.02,14,7,21,0.00
2013-6-1,91,81,75,76,74,71,94,80,57,30.08,29.97,14,5,19,1.27
2013-6-2,91,82,75,77,74,71,95,80,58,30.03,29.92,10,4,15,0.02
2013-6-3,88,81,77,76,74,71,94,81,63,30.03,29.93,12,4,19,0.01
2013-6-4,90,82,77,75,73,64,89,75,52,30.04,29.96,16,6,22,0.00
2013-6-5,88,80,76,75,73,70,92,80,60,30.04,29.91,18,6,26,0.21
2013-6-6,82,77,74,76,74,71,98,89,73,29.92,29.57,25,10,41,4.88
2013-6-7,88,81,76,75,73,71,90,78,63,30.00,29.82,11,4,16,0.00
2013-6-8,80,78,77,75,74,73,90,88,85,30.02,29.99,6,2,8,0.00
2013-6-9,92,84,77,77,76,73,96,78,58,30.11,30.10,11,5,14,0.00
2013-6-10,90,84,83,76,75,71,77,74,62,30.08,30.03,5,1,5,0.00
2013-6-11,93,89,78,78,76,75,90,68,59,30.09,30.08,8,4,12,0.00
2013-6-12,95,89,83,77,75,73,77,64,51,30.10,30.03,10,3,16,0.00
2013-6-13,93,84,77,76,74,70,91,73,51,30.08,29.94,11,3,15,0.00
2013-6-14,91,83,80,76,74,72,81,73,56,30.00,29.91,11,4,17,0.00
2013-6-15,91,84,80,77,76,73,85,75,61,30.08,29.95,11,3,14,0.00
2013-6-16,91,85,80,79,76,74,87,76,60,30.11,30.04,10,3,16,0.03
2013-6-17,94,86,79,77,75,70,91,71,51,30.10,30.02,10,2,14,0.00
2013-6-18,93,85,78,76,75,72,89,72,55,30.08,28.85,10,2,14,0.00
2013-6-19,96,86,79,79,75,74,90,71,49,30.06,29.99,9,2,14,0.03
2013-6-20,97,85,78,77,74,68,90,70,45,30.13,30.03,10,2,15,0.00
2013-6-21,93,83,77,77,73,71,85,73,50,30.14,30.06,10,3,16,0.02
2013-6-22,95,84,76,76,72,66,90,70,42,30.13,30.05,12,3,21,0.07
2013-6-23,97,83,78,76,74,70,89,75,45,30.14,30.08,18,3,26,1.24
2013-6-24,95,84,77,76,74,69,91,74,44,30.19,29.10,12,3,21,0.79
2013-6-25,94,84,77,77,74,66,93,74,48,30.16,29.81,13,3,19,0.07
2013-6-26,93,84,78,76,74,71,91,75,54,30.09,30.01,13,3,19,0.00
2013-6-27,94,84,76,77,74,71,92,73,53,30.06,29.96,9,2,13,0.00
2013-6-28,91,85,79,77,75,73,85,73,59,29.99,29.86,11,3,19,0.00
2013-6-29,86,82,79,77,74,71,84,78,68,29.90,29.81,13,4,22,0.18
2013-6-30,92,84,79,77,75,72,88,75,58,29.91,29.81,17,6,25,0.40
2013-7-1,80,77,73,78,75,69,97,92,86,30.00,29.84,17,7,25,4.19
2013-7-2,90,80,74,78,74,72,98,84,62,30.09,29.90,16,6,25,1.83
2013-7-3,91,79,76,77,75,73,94,86,59,30.12,30.03,19,6,30,1.51
2013-7-4,92,80,74,77,75,72,96,85,56,30.16,30.05,19,6,26,0.83
2013-7-5,91,79,75,77,75,72,96,88,58,30.17,30.10,21,4,42,1.81
2013-7-6,98,83,76,78,75,70,96,79,44,30.15,30.06,14,4,22,0.01
2013-7-7,97,84,78,77,75,71,91,75,45,30.17,30.05,14,3,20,0.79
2013-7-8,94,83,77,78,75,72,94,79,54,30.20,29.92,13,2,22,1.02
2013-7-9,95,84,76,77,74,70,93,74,49,30.20,29.86,17,3,23,0.00
2013-7-10,95,84,77,75,73,71,88,71,49,30.12,30.00,13,3,16,0.03
2013-7-11,80,79,78,74,74,74,86,84,82,30.07,30.01,4,1,7,0.00
2013-7-16,91,80,77,76,72,71,87,77,53,30.18,29.49,20,5,35,0.05
2013-7-17,95,80,76,76,74,69,93,82,48,30.18,30.08,16,4,24,0.69
2013-7-18,94,80,75,76,74,70,94,83,50,30.14,30.05,19,4,25,0.08
2013-7-19,89,79,76,76,74,73,94,85,64,30.14,30.06,14,4,21,0.44
2013-7-20,94,82,75,79,75,72,94,81,53,30.14,30.03,14,4,20,0.00
2013-7-21,92,84,77,79,76,74,92,77,60,30.14,30.06,10,3,15,0.00
2013-7-22,91,85,79,78,76,74,92,77,62,30.15,30.08,11,4,18,0.00
2013-7-23,89,84,80,76,75,73,83,74,62,30.12,29.27,11,4,18,0.00
2013-7-24,90,84,81,77,75,73,83,75,62,30.04,29.93,13,6,20,0.00
2013-7-25,90,84,77,78,76,73,93,77,61,30.04,29.90,14,7,25,0.56
2013-7-26,94,84,78,79,77,74,94,80,55,30.05,29.97,12,2,20,0.33
2013-7-27,97,86,80,77,75,72,90,72,49,30.03,29.95,9,3,15,0.00
2013-7-28,91,84,79,77,75,72,89,75,60,30.08,29.97,9,1,13,0.00
2013-7-29,95,85,76,77,74,63,91,72,42,30.17,30.05,8,2,13,0.01
2013-7-30,96,85,78,77,75,69,87,72,52,30.19,29.99,16,2,28,0.01
2013-7-31,95,85,78,78,75,70,90,72,48,30.15,30.02,9,2,14,0.00
2013-8-1,92,85,79,77,75,72,86,73,56,30.06,29.96,10,3,18,0.01
2013-8-2,97,86,77,77,74,72,89,71,49,30.05,29.95,9,3,13,0.00
2013-8-3,94,86,79,78,75,73,85,70,56,30.11,30.01,10,3,16,0.00
2013-8-4,95,86,82,78,76,74,84,72,55,30.10,30.00,12,4,17,0.03
2013-8-5,96,87,82,78,76,74,82,71,53,30.05,29.95,11,4,18,0.00
2013-8-6,93,84,80,80,77,69,91,80,55,30.00,29.91,22,2,27,1.20
2013-8-7,94,83,78,79,76,71,92,80,55,29.99,29.90,12,3,22,0.23
2013-8-8,96,84,78,79,76,73,93,78,50,30.00,29.44,14,5,19,0.11
2013-8-9,93,83,77,78,75,-18,100,78,2,30.07,29.39,18,4,24,2.27
2013-8-10,97,84,75,77,75,72,94,77,47,30.12,30.03,13,3,16,0.01
2013-8-11,98,87,78,77,75,73,90,70,47,30.15,30.05,11,4,14,0.00
2013-8-12,96,86,79,80,77,75,90,74,54,30.13,30.02,9,2,14,0.00
2013-8-13,94,87,80,77,76,72,86,70,53,30.06,29.23,11,3,15,0.00
2013-8-14,95,86,80,80,76,66,91,72,52,30.01,29.93,11,2,15,0.09
2013-8-15,84,82,81,76,76,75,84,81,75,30.01,29.97,8,3,10,0.00
2013-8-24,86,81,80,75,74,73,84,78,65,30.14,30.06,14,5,19,0.00
2013-8-25,95,82,77,77,75,73,92,80,50,30.18,30.09,10,3,15,0.03
2013-8-26,96,82,76,77,75,72,94,80,50,30.18,30.03,17,3,25,2.40
2013-8-27,99,82,75,78,74,68,94,80,38,30.08,29.02,13,3,24,0.65
2013-8-28,95,83,74,76,73,68,93,75,48,30.08,29.98,11,2,17,0.00
2013-8-29,95,84,75,76,74,72,91,72,49,30.06,29.96,10,3,16,0.00
2013-8-30,95,86,80,77,76,72,84,73,52,30.02,29.24,9,2,14,0.00
2013-8-31,91,82,76,78,75,71,94,79,54,30.02,29.91,11,2,15,1.44
2013-9-1,94,84,77,77,74,70,93,74,50,30.01,29.94,9,3,13,0.00
2013-9-2,94,85,79,78,75,70,92,73,49,30.03,29.96,9,2,14,0.00
2013-9-3,95,86,79,76,75,71,89,71,49,30.05,29.05,9,2,14,0.00
2013-9-4,99,84,78,78,76,70,91,78,42,30.09,29.99,13,2,20,1.94
2013-9-5,96,83,75,79,76,66,93,80,54,30.11,30.00,21,3,27,0.49
2013-9-6,95,83,78,80,76,72,94,81,53,30.08,29.97,12,3,19,0.01
2013-9-7,94,83,74,75,73,70,89,73,50,30.04,29.95,8,3,14,0.00
2013-9-8,96,84,76,75,73,69,89,70,45,30.00,29.88,10,3,17,0.00
2013-9-9,98,86,77,76,73,69,90,68,42,30.05,29.95,10,3,15,0.00
2013-9-10,100,86,78,88,72,64,100,66,35,30.10,29.62,13,5,20,0.00
2013-9-11,102,86,77,76,71,64,90,64,32,30.09,29.99,12,5,21,0.00
2013-9-12,95,85,78,77,74,69,89,72,48,30.05,29.91,10,3,14,0.00
2013-9-13,95,84,76,76,74,72,90,73,50,29.94,29.84,9,2,13,0.00
2013-9-14,96,85,78,77,74,72,91,72,49,30.00,29.86,8,2,13,0.00
2013-9-15,101,84,76,78,74,70,88,74,38,30.10,29.98,23,4,34,0.06
2013-9-16,98,82,76,77,74,71,93,80,43,30.10,29.99,18,3,28,0.10
2013-9-17,100,83,75,76,73,70,95,76,40,30.08,29.95,15,4,20,0.00
2013-9-18,95,82,77,78,74,72,91,77,49,30.06,29.98,14,4,22,0.10
2013-9-19,99,82,76,79,75,70,93,80,41,30.07,29.98,13,4,17,0.69
2013-9-20,98,83,75,75,73,68,93,73,41,30.06,29.92,10,2,14,0.00
2013-9-21,92,83,74,76,71,68,87,70,48,29.97,29.81,12,4,15,0.00
2013-9-22,89,83,80,79,76,72,89,79,66,29.88,29.79,15,3,22,0.10
2013-9-23,84,79,77,80,77,76,96,93,83,29.97,29.85,15,5,21,1.53
2013-9-24,81,78,75,78,76,74,98,94,86,29.98,29.67,16,6,21,2.00
2013-9-25,81,77,72,79,75,71,98,93,84,29.95,29.81,19,4,32,2.02
2013-9-26,90,83,77,80,76,72,94,81,62,29.92,29.81,10,5,18,0.03
2013-9-27,90,80,72,75,71,68,91,77,56,30.00,29.89,13,4,21,0.00
2013-9-28,95,81,73,76,72,70,91,76,47,30.02,29.95,12,5,19,0.00
2013-9-29,94,82,73,73,70,66,88,69,43,30.02,29.93,8,4,14,0.00
2013-9-30,93,81,75,75,72,68,92,75,48,30.03,29.94,11,3,16,0.00
2013-10-1,99,84,75,75,73,66,92,72,36,30.07,29.73,11,3,19,0.00
2013-10-2,97,84,75,74,71,69,88,69,42,30.07,29.99,10,4,15,0.00
2013-10-3,97,83,76,74,72,68,88,71,41,30.08,30.00,11,3,15,0.00
2013-10-4,95,83,77,76,73,68,89,74,45,30.11,30.02,10,3,13,0.00
2013-10-5,96,83,76,76,72,68,87,71,41,30.09,29.97,9,4,14,0.00
2013-10-6,94,83,75,76,72,63,93,72,44,30.02,29.88,10,3,13,0.00
2013-10-7,88,81,76,78,76,72,97,84,70,29.90,29.77,16,6,25,0.66
2013-10-8,91,83,77,77,74,71,89,77,57,29.99,29.77,14,5,21,0.00
2013-10-9,84,77,72,72,70,66,84,77,64,30.08,29.98,11,4,16,0.00
2013-10-10,90,77,67,71,68,65,94,75,48,30.08,29.99,9,3,15,0.00
2013-10-11,91,79,69,71,68,65,93,72,45,30.07,29.97,8,1,14,0.00
2013-10-12,92,78,69,70,65,61,91,67,37,30.08,30.00,11,2,16,0.00
2013-10-13,90,77,67,71,65,62,90,68,40,30.11,30.01,9,2,14,0.00
2013-10-14,90,78,69,70,67,64,91,72,52,30.08,29.95,11,4,19,0.00
2013-10-15,87,76,69,72,69,66,91,79,58,30.04,29.78,9,3,16,0.00
2013-10-16,89,77,70,72,70,66,94,78,52,30.00,29.93,9,2,12,0.00
2013-10-17,91,79,72,74,71,68,95,78,54,30.00,29.93,8,2,13,0.00
2013-10-18,92,81,73,74,72,68,93,76,48,30.00,29.92,10,2,14,0.00
2013-10-19,88,80,74,77,74,72,93,83,65,29.98,29.89,10,2,13,0.00
2013-10-20,93,82,75,76,73,70,95,77,49,29.99,29.91,9,1,14,0.00
2013-10-21,92,81,75,76,74,70,93,79,54,30.02,29.95,10,2,13,0.00
2013-10-22,89,79,73,76,73,70,95,84,64,29.99,29.65,13,3,20,0.29
2013-10-23,83,76,71,74,66,56,93,71,43,30.05,29.85,13,5,24,0.05
2013-10-24,79,69,63,60,52,47,77,56,39,30.20,30.04,11,4,17,0.00
2013-10-25,85,70,59,61,57,50,90,65,35,30.27,30.17,12,3,20,0.00
2013-10-26,84,71,62,61,59,56,85,67,42,30.24,30.12,9,4,14,0.00
2013-10-27,85,70,61,62,58,54,90,68,44,30.17,30.08,10,3,14,0.00
2013-10-28,86,72,63,64,60,52,88,68,36,30.22,30.12,10,3,15,0.00
2013-10-29,93,76,66,69,65,60,93,71,35,30.25,30.04,10,4,20,0.00
2013-10-30,93,78,69,71,67,64,90,72,40,30.25,30.10,9,4,14,0.00
2013-10-31,91,78,70,72,68,64,94,75,45,30.16,30.00,14,3,20,0.00
2013-11-1,88,79,73,76,73,71,94,84,64,30.04,29.91,16,6,25,0.00
2013-11-2,78,73,67,76,69,62,97,88,74,30.02,29.84,13,4,20,1.06
2013-11-3,85,69,60,63,54,46,94,63,28,30.16,30.01,13,4,19,0.00
2013-11-4,86,70,62,65,59,52,86,69,44,30.18,30.11,14,6,22,0.00
2013-11-5,88,75,66,70,67,64,93,77,51,30.18,29.96,15,6,22,0.00
2013-11-6,89,78,71,70,68,64,89,75,46,30.13,30.03,10,4,15,0.00
2013-11-7,83,75,70,71,69,67,93,82,61,30.09,29.99,9,2,13,0.00
2013-11-8,89,74,67,70,64,59,94,73,42,30.15,30.03,12,5,18,0.00
2013-11-9,83,74,67,68,64,61,83,72,58,30.18,30.09,12,5,20,0.00
2013-11-10,86,75,68,70,67,63,86,76,55,30.18,30.08,8,3,13,0.00
2013-11-11,87,75,67,69,67,64,93,78,50,30.18,30.08,8,3,15,0.00
2013-11-12,80,72,68,71,67,57,94,83,64,30.14,29.90,11,2,20,0.00
2013-11-13,74,64,55,58,52,48,79,65,47,30.34,30.11,16,8,26,0.00
2013-11-14,82,66,54,60,55,49,88,71,43,30.32,30.18,13,5,23,0.00
2013-11-15,73,69,65,67,63,60,91,83,73,30.20,30.07,8,3,13,0.07
2013-11-16,76,72,69,72,69,66,96,91,85,30.14,30.05,14,4,18,0.21
2013-11-17,88,76,70,73,69,65,94,79,55,30.10,30.01,12,4,17,0.00
2013-11-18,84,76,70,74,71,68,96,85,63,30.06,29.95,10,2,13,0.01
2013-11-19,87,76,69,74,70,61,97,82,56,30.00,29.83,9,3,16,0.00
2013-11-20,85,73,67,73,68,63,91,84,66,30.12,29.99,10,4,16,0.03
2013-11-21,88,77,72,72,71,69,95,83,56,30.20,30.09,14,5,18,0.00
2013-11-22,91,78,71,72,70,66,95,78,48,30.20,30.10,9,3,14,0.00
2013-11-23,86,74,67,70,67,65,92,79,49,30.14,30.04,9,3,15,0.00
2013-11-24,73,68,60,69,61,53,92,79,67,30.25,30.07,13,6,23,0.00
2013-11-25,77,68,60,64,59,53,85,74,57,30.24,30.07,14,7,25,0.00
2013-11-26,80,74,69,74,71,64,98,92,77,30.07,29.61,24,11,33,0.42
2013-11-27,73,65,51,72,58,43,98,79,65,30.23,29.77,16,8,34,0.01
2013-11-28,68,54,42,53,45,35,87,74,52,30.39,30.23,10,4,17,0.00
2013-11-29,79,62,53,58,54,50,95,77,45,30.39,30.29,12,5,20,0.00
2013-11-30,81,67,57,64,59,52,95,79,54,30.34,30.19,11,5,20,0.00
2013-12-1,74,65,62,65,62,60,96,90,71,30.22,30.02,8,3,13,0.00
2013-12-2,71,66,62,65,61,57,97,86,64,30.03,29.88,9,1,15,0.00
2013-12-3,84,70,60,69,64,58,96,84,53,30.00,29.81,13,5,17,0.00
2013-12-4,80,76,68,73,70,67,97,84,73,30.17,29.98,9,5,13,0.01
2013-12-5,80,80,80,71,71,71,74,74,74,30.17,30.17,7,7,9,0.00
2013-12-6,80,80,80,71,71,71,74,74,74,30.17,30.17,7,7,9,0.00
2013-12-7,80,80,80,71,71,71,74,74,74,30.17,30.17,7,7,9,0.00
2013-12-8,80,80,80,71,71,71,74,74,74,30.17,30.17,7,7,9,0.00
2013-12-9,80,80,80,71,71,71,74,74,74,30.17,30.17,7,7,9,0.00
2013-12-10,80,80,80,71,71,71,74,74,74,30.17,30.17,7,7,9,0.00
2013-12-11,80,80,80,71,71,71,74,74,74,30.17,30.17,7,7,9,0.00
2013-12-12,80,69,57,71,54,39,74,60,44,30.17,30.17,9,6,13,0.00
2013-12-13,84,65,53,61,53,43,86,68,36,0.00,0.00,10,3,17,0.00
2013-12-14,83,73,66,72,68,60,96,85,66,0.00,0.00,20,10,31,0.00
2013-12-15,74,69,61,73,64,56,99,85,71,0.00,0.00,14,6,23,0.00
2013-12-16,70,59,52,56,50,46,88,73,45,0.00,0.00,11,4,18,0.00
2013-12-17,75,59,49,53,49,43,87,70,41,0.00,0.00,10,2,14,0.00
2013-12-18,76,60,51,56,52,45,96,75,44,0.00,0.00,10,2,15,0.00
2013-12-19,86,64,49,61,54,47,95,74,35,0.00,0.00,10,2,14,0.00
2013-12-20,90,72,62,68,64,58,94,77,47,0.00,0.00,15,4,20,0.00
2013-12-21,87,76,69,71,69,66,95,80,54,0.00,0.00,17,8,22,0.00
2013-12-22,86,76,71,73,71,69,96,84,61,0.00,0.00,21,9,30,0.00
2013-12-23,84,76,71,75,72,69,98,89,70,0.00,0.00,19,8,24,0.00
2013-12-24,74,65,55,72,53,38,97,69,33,0.00,0.00,15,6,28,0.00
2013-12-25,82,63,50,60,51,38,76,65,46,0.00,0.00,11,4,18,0.00
2013-12-26,81,68,62,64,61,58,90,78,53,0.00,0.00,10,4,14,0.00
2013-12-27,74,67,63,68,63,59,94,87,76,0.00,0.00,11,5,17,0.04
2013-12-28,80,72,66,70,68,64,97,88,69,0.00,0.00,13,6,21,0.00
2013-12-29,75,74,72,73,72,70,96,93,90,0.00,0.00,19,6,32,0.01
2013-12-30,75,75,75,72,72,72,92,92,92,0.00,0.00,3,3,4,0.00
2013-12-31,75,75,75,72,72,72,92,92,92,0.00,0.00,3,3,4,0.00
2014-1-1,75,75,75,72,72,72,92,92,92,0.00,0.00,3,3,4,0.00
2014-1-2,75,75,75,72,72,72,92,92,92,0.00,0.00,3,3,4,0.00